N62ET KRDU-KCAE

Flight info

Callsign N62ET
Flight time 2h 6m
Altitude 8000
Route HOOKZ5 DAWTS FLO
Aircraft DA62/L-SDFGRY/C

Departure

Time 2026-05-05 06:04
Airport Raleigh-Durham International Airport (KRDU)

Arrival

Time 2026-05-05 08:10
Airport Columbia Metropolitan Airport (KCAE)
Time Latitude Longitude Altitude Speed Heading
2026-05-05 05:56 35.88575 -78.78321 401 ft 0 kts 216°
2026-05-05 05:59 35.88582 -78.78342 401 ft 8 kts 328°
2026-05-05 05:59 35.88667 -78.78350 397 ft 16 kts 302°
2026-05-05 05:59 35.88762 -78.78381 393 ft 19 kts 46°
2026-05-05 06:00 35.88862 -78.78256 391 ft 21 kts 43°
2026-05-05 06:00 35.88964 -78.78123 392 ft 21 kts 44°
2026-05-05 06:00 35.89068 -78.77997 394 ft 20 kts 44°
2026-05-05 06:00 35.89174 -78.77873 397 ft 20 kts 43°
2026-05-05 06:01 35.89252 -78.77816 398 ft 0 kts 344°
2026-05-05 06:01 35.89253 -78.77816 398 ft 0 kts 344°
2026-05-05 06:02 35.89252 -78.77816 398 ft 0 kts 344°
2026-05-05 06:02 35.89262 -78.77823 398 ft 8 kts 318°
2026-05-05 06:02 35.89276 -78.77934 393 ft 22 kts 225°
2026-05-05 06:03 35.89026 -78.78244 387 ft 73 kts 224°
2026-05-05 06:03 35.88651 -78.78719 492 ft 77 kts 220°
2026-05-05 06:03 35.88252 -78.79185 629 ft 80 kts 220°
2026-05-05 06:03 35.87848 -78.79662 784 ft 81 kts 219°
2026-05-05 06:04 35.87400 -78.80148 1007 ft 86 kts 218°
2026-05-05 06:04 35.86966 -78.80650 1272 ft 87 kts 221°
2026-05-05 06:04 35.86539 -78.81181 1542 ft 87 kts 219°
2026-05-05 06:04 35.85987 -78.81396 1819 ft 86 kts 185°
2026-05-05 06:05 35.85363 -78.81421 2034 ft 92 kts 185°
2026-05-05 06:05 35.84726 -78.81446 2308 ft 92 kts 185°
2026-05-05 06:05 35.84090 -78.81475 2583 ft 91 kts 186°
2026-05-05 06:05 35.83465 -78.81507 2851 ft 91 kts 186°
2026-05-05 06:06 35.82832 -78.81543 3121 ft 91 kts 187°
2026-05-05 06:06 35.82198 -78.81580 3390 ft 91 kts 187°
2026-05-05 06:06 35.81570 -78.81620 3657 ft 91 kts 187°
2026-05-05 06:06 35.80936 -78.81660 3925 ft 92 kts 188°
2026-05-05 06:07 35.80304 -78.81702 4191 ft 92 kts 188°
2026-05-05 06:07 35.79670 -78.81745 4458 ft 92 kts 188°
2026-05-05 06:07 35.79037 -78.81789 4722 ft 92 kts 189°
2026-05-05 06:07 35.78395 -78.81833 4990 ft 92 kts 189°
2026-05-05 06:08 35.77757 -78.81877 5254 ft 92 kts 189°
2026-05-05 06:08 35.77128 -78.81921 5515 ft 92 kts 189°
2026-05-05 06:08 35.76482 -78.81967 5780 ft 92 kts 190°
2026-05-05 06:08 35.75846 -78.82012 6040 ft 93 kts 190°
2026-05-05 06:09 35.75201 -78.82059 6303 ft 93 kts 191°
2026-05-05 06:09 35.74557 -78.82104 6564 ft 93 kts 191°
2026-05-05 06:09 35.73913 -78.82150 6823 ft 93 kts 191°
2026-05-05 06:09 35.73266 -78.82197 7082 ft 94 kts 191°
2026-05-05 06:10 35.72617 -78.82243 7340 ft 94 kts 192°
2026-05-05 06:10 35.71970 -78.82290 7597 ft 94 kts 192°
2026-05-05 06:10 35.71321 -78.82336 7852 ft 94 kts 192°
2026-05-05 06:10 35.70640 -78.82390 7993 ft 106 kts 192°
2026-05-05 06:11 35.69833 -78.82460 8018 ft 124 kts 191°
2026-05-05 06:11 35.68923 -78.82533 8017 ft 138 kts 190°
2026-05-05 06:11 35.67961 -78.82603 8007 ft 142 kts 190°
2026-05-05 06:11 35.66963 -78.82671 8004 ft 145 kts 189°
2026-05-05 06:12 35.65955 -78.82741 8003 ft 146 kts 189°
2026-05-05 06:12 35.64924 -78.82812 8002 ft 147 kts 189°
2026-05-05 06:12 35.63905 -78.82883 8002 ft 148 kts 189°
2026-05-05 06:12 35.62869 -78.82957 8001 ft 149 kts 189°
2026-05-05 06:13 35.61834 -78.83030 8001 ft 149 kts 189°
2026-05-05 06:13 35.60807 -78.83102 8001 ft 149 kts 189°
2026-05-05 06:13 35.59764 -78.83176 8001 ft 149 kts 189°
2026-05-05 06:13 35.58737 -78.83250 8001 ft 149 kts 189°
2026-05-05 06:14 35.57692 -78.83324 8001 ft 149 kts 189°
2026-05-05 06:14 35.56664 -78.83398 8001 ft 150 kts 189°
2026-05-05 06:14 35.55622 -78.83472 8000 ft 150 kts 189°
2026-05-05 06:14 35.54578 -78.83546 8000 ft 150 kts 189°
2026-05-05 06:15 35.53538 -78.83621 8000 ft 150 kts 189°
2026-05-05 06:15 35.52503 -78.83695 8000 ft 150 kts 189°
2026-05-05 06:15 35.51472 -78.83768 8000 ft 150 kts 189°
2026-05-05 06:15 35.50432 -78.83843 8000 ft 150 kts 189°
2026-05-05 06:16 35.49390 -78.83917 8000 ft 150 kts 189°
2026-05-05 06:16 35.48346 -78.83991 8000 ft 150 kts 189°
2026-05-05 06:16 35.47311 -78.84065 8000 ft 150 kts 189°
2026-05-05 06:16 35.46276 -78.84139 8000 ft 149 kts 189°
2026-05-05 06:17 35.45246 -78.84212 8000 ft 149 kts 189°
2026-05-05 06:17 35.44197 -78.84287 8000 ft 149 kts 189°
2026-05-05 06:17 35.43160 -78.84361 8000 ft 149 kts 189°
2026-05-05 06:17 35.42127 -78.84435 8000 ft 149 kts 189°
2026-05-05 06:18 35.41087 -78.84508 8000 ft 149 kts 189°
2026-05-05 06:18 35.40057 -78.84583 8000 ft 149 kts 189°
2026-05-05 06:18 35.39017 -78.84656 8000 ft 149 kts 189°
2026-05-05 06:18 35.37984 -78.84730 8000 ft 149 kts 189°
2026-05-05 06:19 35.36937 -78.84804 8000 ft 149 kts 189°
2026-05-05 06:19 35.35902 -78.84878 8000 ft 149 kts 189°
2026-05-05 06:19 35.34860 -78.84952 7999 ft 149 kts 189°
2026-05-05 06:19 35.33836 -78.85025 7999 ft 149 kts 189°
2026-05-05 06:20 35.32795 -78.85119 8009 ft 147 kts 186°
2026-05-05 06:20 35.31784 -78.85188 8010 ft 146 kts 185°
2026-05-05 06:20 35.30760 -78.85255 8010 ft 146 kts 185°
2026-05-05 06:20 35.29756 -78.85323 8011 ft 145 kts 185°
2026-05-05 06:21 35.28746 -78.85391 8011 ft 145 kts 185°
2026-05-05 06:21 35.27742 -78.85461 8011 ft 145 kts 185°
2026-05-05 06:21 35.26733 -78.85532 8011 ft 145 kts 185°
2026-05-05 06:21 35.25739 -78.85601 8011 ft 144 kts 185°
2026-05-05 06:22 35.24729 -78.85673 8011 ft 144 kts 185°
2026-05-05 06:22 35.23727 -78.85743 8011 ft 144 kts 185°
2026-05-05 06:22 35.22728 -78.85814 8011 ft 144 kts 185°
2026-05-05 06:22 35.21731 -78.85884 8011 ft 144 kts 185°
2026-05-05 06:23 35.20730 -78.85955 8011 ft 144 kts 185°
2026-05-05 06:23 35.19729 -78.86026 8010 ft 144 kts 185°
2026-05-05 06:23 35.18724 -78.86097 8010 ft 144 kts 185°
2026-05-05 06:23 35.17726 -78.86168 8010 ft 144 kts 185°
2026-05-05 06:24 35.16723 -78.86239 8010 ft 144 kts 185°
2026-05-05 06:24 35.15718 -78.86310 8010 ft 144 kts 185°
2026-05-05 06:24 35.14722 -78.86381 8010 ft 144 kts 185°
2026-05-05 06:24 35.13723 -78.86451 8010 ft 144 kts 185°
2026-05-05 06:25 35.12715 -78.86523 8010 ft 144 kts 185°
2026-05-05 06:25 35.11711 -78.86594 8010 ft 144 kts 185°
2026-05-05 06:25 35.10713 -78.86664 8010 ft 144 kts 185°
2026-05-05 06:25 35.09717 -78.86734 8010 ft 144 kts 185°
2026-05-05 06:26 35.08718 -78.86805 8010 ft 144 kts 185°
2026-05-05 06:26 35.07719 -78.86875 8010 ft 144 kts 185°
2026-05-05 06:26 35.06721 -78.86946 8010 ft 144 kts 185°
2026-05-05 06:26 35.05715 -78.87017 8010 ft 144 kts 185°
2026-05-05 06:27 35.04723 -78.87087 8010 ft 144 kts 185°
2026-05-05 06:27 35.02726 -78.87228 8009 ft 144 kts 185°
2026-05-05 06:27 35.01717 -78.87299 8009 ft 144 kts 185°
2026-05-05 06:28 35.00722 -78.87369 8009 ft 144 kts 185°
2026-05-05 06:28 34.99729 -78.87439 8009 ft 144 kts 185°
2026-05-05 06:28 34.98785 -78.87779 8020 ft 143 kts 211°
2026-05-05 06:28 34.97957 -78.88481 8012 ft 144 kts 214°
2026-05-05 06:29 34.97159 -78.89220 8010 ft 145 kts 215°
2026-05-05 06:29 34.96375 -78.89980 8009 ft 145 kts 216°
2026-05-05 06:29 34.95585 -78.90765 8009 ft 145 kts 217°
2026-05-05 06:29 34.94816 -78.91544 8009 ft 145 kts 217°
2026-05-05 06:30 34.94044 -78.92336 8009 ft 145 kts 217°
2026-05-05 06:30 34.93273 -78.93132 8009 ft 145 kts 217°
2026-05-05 06:30 34.92509 -78.93926 8009 ft 145 kts 217°
2026-05-05 06:30 34.91739 -78.94728 8009 ft 145 kts 218°
2026-05-05 06:31 34.90967 -78.95534 8009 ft 145 kts 218°
2026-05-05 06:31 34.90207 -78.96329 8009 ft 145 kts 218°
2026-05-05 06:31 34.89434 -78.97138 8013 ft 145 kts 218°
2026-05-05 06:31 34.88669 -78.97938 8014 ft 146 kts 218°
2026-05-05 06:32 34.87896 -78.98749 8015 ft 146 kts 218°
2026-05-05 06:32 34.87130 -78.99551 8014 ft 146 kts 218°
2026-05-05 06:32 34.86351 -79.00366 8014 ft 146 kts 218°
2026-05-05 06:32 34.85587 -79.01166 8014 ft 146 kts 218°
2026-05-05 06:33 34.84812 -79.01977 8014 ft 146 kts 218°
2026-05-05 06:33 34.84039 -79.02786 8014 ft 147 kts 218°
2026-05-05 06:33 34.83263 -79.03598 8014 ft 147 kts 218°
2026-05-05 06:33 34.82487 -79.04410 8014 ft 147 kts 218°
2026-05-05 06:34 34.81714 -79.05218 8014 ft 147 kts 218°
2026-05-05 06:34 34.80946 -79.06021 8014 ft 147 kts 218°
2026-05-05 06:34 34.80165 -79.06838 8014 ft 147 kts 218°
2026-05-05 06:34 34.79396 -79.07642 8014 ft 147 kts 218°
2026-05-05 06:35 34.78617 -79.08443 8026 ft 145 kts 222°
2026-05-05 06:35 34.77855 -79.09225 8025 ft 143 kts 223°
2026-05-05 06:35 34.77104 -79.10017 8025 ft 142 kts 223°
2026-05-05 06:35 34.76359 -79.10801 8025 ft 142 kts 223°
2026-05-05 06:36 34.75617 -79.11579 8025 ft 141 kts 223°
2026-05-05 06:36 34.74868 -79.12363 8025 ft 141 kts 223°
2026-05-05 06:36 34.74119 -79.13146 8025 ft 141 kts 223°
2026-05-05 06:36 34.73386 -79.13911 8025 ft 140 kts 223°
2026-05-05 06:37 34.72644 -79.14687 8025 ft 140 kts 223°
2026-05-05 06:37 34.71900 -79.15462 8025 ft 140 kts 223°
2026-05-05 06:37 34.71155 -79.16238 8025 ft 140 kts 223°
2026-05-05 06:37 34.70423 -79.17001 8025 ft 140 kts 223°
2026-05-05 06:38 34.69682 -79.17775 8025 ft 140 kts 223°
2026-05-05 06:38 34.68937 -79.18550 8025 ft 140 kts 223°
2026-05-05 06:38 34.68195 -79.19323 8025 ft 140 kts 223°
2026-05-05 06:38 34.67455 -79.20094 8025 ft 140 kts 223°
2026-05-05 06:39 34.66720 -79.20858 8025 ft 140 kts 223°
2026-05-05 06:39 34.65978 -79.21630 8025 ft 140 kts 223°
2026-05-05 06:39 34.65235 -79.22403 8025 ft 140 kts 223°
2026-05-05 06:39 34.64497 -79.23170 8024 ft 140 kts 223°
2026-05-05 06:40 34.63755 -79.23942 8024 ft 140 kts 223°
2026-05-05 06:40 34.63015 -79.24710 8024 ft 140 kts 223°
2026-05-05 06:40 34.62285 -79.25469 8024 ft 140 kts 223°
2026-05-05 06:40 34.61545 -79.26238 8024 ft 140 kts 223°
2026-05-05 06:41 34.60805 -79.27007 8024 ft 140 kts 223°
2026-05-05 06:41 34.60063 -79.27776 8024 ft 140 kts 223°
2026-05-05 06:41 34.59326 -79.28542 8024 ft 140 kts 223°
2026-05-05 06:41 34.58584 -79.29313 8024 ft 140 kts 223°
2026-05-05 06:42 34.57840 -79.30084 8024 ft 140 kts 223°
2026-05-05 06:42 34.57109 -79.30843 8024 ft 140 kts 223°
2026-05-05 06:42 34.56360 -79.31619 8024 ft 140 kts 223°
2026-05-05 06:42 34.55629 -79.32377 8024 ft 140 kts 223°
2026-05-05 06:43 34.54888 -79.33145 8024 ft 140 kts 223°
2026-05-05 06:43 34.54147 -79.33913 8024 ft 140 kts 223°
2026-05-05 06:43 34.53406 -79.34681 8023 ft 140 kts 223°
2026-05-05 06:43 34.52667 -79.35446 8023 ft 140 kts 223°
2026-05-05 06:44 34.51926 -79.36214 8023 ft 140 kts 223°
2026-05-05 06:44 34.51189 -79.36977 8023 ft 140 kts 223°
2026-05-05 06:44 34.50452 -79.37740 8023 ft 140 kts 223°
2026-05-05 06:44 34.49710 -79.38507 8023 ft 140 kts 223°
2026-05-05 06:45 34.48979 -79.39264 8023 ft 140 kts 223°
2026-05-05 06:45 34.48237 -79.40031 8023 ft 140 kts 223°
2026-05-05 06:45 34.47493 -79.40801 8023 ft 140 kts 223°
2026-05-05 06:45 34.46753 -79.41565 8023 ft 140 kts 223°
2026-05-05 06:46 34.46024 -79.42319 8023 ft 140 kts 223°
2026-05-05 06:46 34.45282 -79.43086 8023 ft 140 kts 223°
2026-05-05 06:46 34.44540 -79.43852 8023 ft 139 kts 223°
2026-05-05 06:46 34.43802 -79.44614 8023 ft 139 kts 223°
2026-05-05 06:47 34.43064 -79.45377 8022 ft 139 kts 223°
2026-05-05 06:47 34.42325 -79.46139 8022 ft 139 kts 223°
2026-05-05 06:47 34.41593 -79.46895 8022 ft 139 kts 223°
2026-05-05 06:47 34.40850 -79.47662 8022 ft 139 kts 223°
2026-05-05 06:48 34.40115 -79.48420 8022 ft 139 kts 223°
2026-05-05 06:48 34.39375 -79.49184 8022 ft 139 kts 223°
2026-05-05 06:48 34.38634 -79.49947 8022 ft 139 kts 223°
2026-05-05 06:48 34.37895 -79.50709 8022 ft 139 kts 223°
2026-05-05 06:49 34.37157 -79.51469 8022 ft 139 kts 223°
2026-05-05 06:49 34.36423 -79.52226 8022 ft 139 kts 223°
2026-05-05 06:49 34.35689 -79.52982 8022 ft 139 kts 223°
2026-05-05 06:49 34.34945 -79.53748 8022 ft 139 kts 223°
2026-05-05 06:50 34.34209 -79.54505 8018 ft 140 kts 229°
2026-05-05 06:50 34.33445 -79.55261 8027 ft 142 kts 230°
2026-05-05 06:50 34.32700 -79.56036 8030 ft 143 kts 230°
2026-05-05 06:50 34.31942 -79.56825 8030 ft 145 kts 229°
2026-05-05 06:51 34.31166 -79.57629 8030 ft 146 kts 229°
2026-05-05 06:51 34.30396 -79.58424 8029 ft 146 kts 229°
2026-05-05 06:51 34.29620 -79.59224 8029 ft 147 kts 229°
2026-05-05 06:51 34.28852 -79.60014 8029 ft 147 kts 229°
2026-05-05 06:52 34.28072 -79.60817 8029 ft 147 kts 229°
2026-05-05 06:52 34.27285 -79.61625 8029 ft 147 kts 229°
2026-05-05 06:52 34.26505 -79.62427 8029 ft 147 kts 229°
2026-05-05 06:52 34.25726 -79.63227 8028 ft 147 kts 229°
2026-05-05 06:53 34.24948 -79.64026 8028 ft 147 kts 229°
2026-05-05 06:53 34.24163 -79.64831 8028 ft 147 kts 229°
2026-05-05 06:53 34.23577 -79.65781 8044 ft 139 kts 253°
2026-05-05 06:53 34.23257 -79.66899 8037 ft 139 kts 256°
2026-05-05 06:54 34.22978 -79.68018 8035 ft 140 kts 258°
2026-05-05 06:54 34.22718 -79.69141 8035 ft 140 kts 258°
2026-05-05 06:54 34.22467 -79.70286 8035 ft 140 kts 259°
2026-05-05 06:54 34.22228 -79.71420 8034 ft 140 kts 259°
2026-05-05 06:55 34.21993 -79.72559 8034 ft 140 kts 259°
2026-05-05 06:55 34.21761 -79.73704 8034 ft 140 kts 260°
2026-05-05 06:55 34.21532 -79.74844 8034 ft 140 kts 260°
2026-05-05 06:55 34.21302 -79.75999 8034 ft 140 kts 260°
2026-05-05 06:56 34.21077 -79.77140 8034 ft 140 kts 260°
2026-05-05 06:56 34.20852 -79.78278 8034 ft 140 kts 260°
2026-05-05 06:56 34.20625 -79.79433 8034 ft 140 kts 260°
2026-05-05 06:56 34.20403 -79.80566 8034 ft 140 kts 260°
2026-05-05 06:57 34.20176 -79.81722 8034 ft 140 kts 260°
2026-05-05 06:57 34.19953 -79.82855 8033 ft 140 kts 260°
2026-05-05 06:57 34.19727 -79.84005 8033 ft 140 kts 260°
2026-05-05 06:57 34.19504 -79.85143 8033 ft 140 kts 260°
2026-05-05 06:58 34.19278 -79.86295 8033 ft 140 kts 260°
2026-05-05 06:58 34.19054 -79.87432 8033 ft 140 kts 260°
2026-05-05 06:58 34.18830 -79.88573 8033 ft 140 kts 260°
2026-05-05 06:58 34.18603 -79.89725 8033 ft 140 kts 260°
2026-05-05 06:59 34.18378 -79.90871 8033 ft 140 kts 260°
2026-05-05 06:59 34.18155 -79.92003 8033 ft 140 kts 260°
2026-05-05 06:59 34.17928 -79.93153 8033 ft 140 kts 260°
2026-05-05 06:59 34.17704 -79.94293 8033 ft 140 kts 260°
2026-05-05 07:00 34.17479 -79.95432 8033 ft 140 kts 260°
2026-05-05 07:00 34.17252 -79.96582 8033 ft 140 kts 260°
2026-05-05 07:00 34.17029 -79.97713 8033 ft 140 kts 260°
2026-05-05 07:00 34.16803 -79.98856 8032 ft 140 kts 260°
2026-05-05 07:01 34.16577 -79.99999 8032 ft 140 kts 260°
2026-05-05 07:01 34.16351 -80.01143 8032 ft 140 kts 260°
2026-05-05 07:01 34.16127 -80.02276 8032 ft 140 kts 260°
2026-05-05 07:01 34.15899 -80.03430 8032 ft 140 kts 260°
2026-05-05 07:02 34.15674 -80.04566 8032 ft 140 kts 260°
2026-05-05 07:02 34.15447 -80.05711 8032 ft 139 kts 260°
2026-05-05 07:02 34.15223 -80.06844 8032 ft 139 kts 260°
2026-05-05 07:02 34.14998 -80.07976 8032 ft 139 kts 260°
2026-05-05 07:03 34.14772 -80.09116 8032 ft 139 kts 260°
2026-05-05 07:03 34.14543 -80.10271 8032 ft 139 kts 260°
2026-05-05 07:03 34.14317 -80.11406 8032 ft 139 kts 260°
2026-05-05 07:03 34.14090 -80.12550 8032 ft 139 kts 260°
2026-05-05 07:04 34.13862 -80.13701 8032 ft 139 kts 260°
2026-05-05 07:04 34.13634 -80.14846 8031 ft 139 kts 260°
2026-05-05 07:04 34.13409 -80.15974 8031 ft 139 kts 260°
2026-05-05 07:04 34.13181 -80.17119 8031 ft 139 kts 260°
2026-05-05 07:05 34.12956 -80.18250 8031 ft 139 kts 260°
2026-05-05 07:05 34.12718 -80.19408 8024 ft 141 kts 262°
2026-05-05 07:05 34.12490 -80.20556 8022 ft 141 kts 262°
2026-05-05 07:05 34.12263 -80.21706 8022 ft 142 kts 262°
2026-05-05 07:06 34.12033 -80.22862 8022 ft 142 kts 262°
2026-05-05 07:06 34.11802 -80.24025 8021 ft 142 kts 262°
2026-05-05 07:06 34.11571 -80.25185 8021 ft 142 kts 262°
2026-05-05 07:06 34.11336 -80.26360 8021 ft 142 kts 262°
2026-05-05 07:07 34.11105 -80.27518 8021 ft 142 kts 262°
2026-05-05 07:07 34.10873 -80.28677 8021 ft 143 kts 262°
2026-05-05 07:07 34.10639 -80.29846 8021 ft 143 kts 262°
2026-05-05 07:07 34.10407 -80.31004 8021 ft 143 kts 262°
2026-05-05 07:08 34.10175 -80.32162 8021 ft 143 kts 262°
2026-05-05 07:08 34.09941 -80.33327 8021 ft 143 kts 262°
2026-05-05 07:08 34.09705 -80.34503 8021 ft 143 kts 262°
2026-05-05 07:08 34.09473 -80.35658 8021 ft 143 kts 262°
2026-05-05 07:09 34.09241 -80.36816 8021 ft 143 kts 262°
2026-05-05 07:09 34.09007 -80.37981 8021 ft 142 kts 262°
2026-05-05 07:09 34.08773 -80.39142 8021 ft 142 kts 262°
2026-05-05 07:09 34.08539 -80.40305 8020 ft 142 kts 262°
2026-05-05 07:10 34.08303 -80.41478 8020 ft 142 kts 262°
2026-05-05 07:10 34.08071 -80.42628 8020 ft 142 kts 262°
2026-05-05 07:10 34.07834 -80.43803 8020 ft 142 kts 262°
2026-05-05 07:10 34.07601 -80.44958 8020 ft 142 kts 262°
2026-05-05 07:11 34.07365 -80.46127 8020 ft 142 kts 262°
2026-05-05 07:11 34.07132 -80.47284 8020 ft 142 kts 262°
2026-05-05 07:11 34.06899 -80.48438 8020 ft 142 kts 262°
2026-05-05 07:11 34.06663 -80.49609 8020 ft 142 kts 262°
2026-05-05 07:12 34.06429 -80.50762 8020 ft 142 kts 262°
2026-05-05 07:12 34.06195 -80.51922 8020 ft 142 kts 262°
2026-05-05 07:12 34.05959 -80.53088 8020 ft 142 kts 262°
2026-05-05 07:12 34.05725 -80.54243 8020 ft 142 kts 262°
2026-05-05 07:13 34.05487 -80.55415 8020 ft 142 kts 262°
2026-05-05 07:13 34.05253 -80.56569 8020 ft 142 kts 262°
2026-05-05 07:13 34.05018 -80.57729 8020 ft 142 kts 262°
2026-05-05 07:13 34.04783 -80.58884 8019 ft 142 kts 262°
2026-05-05 07:14 34.04548 -80.60043 8019 ft 142 kts 262°
2026-05-05 07:14 34.04312 -80.61203 8019 ft 142 kts 262°
2026-05-05 07:14 34.04077 -80.62358 8019 ft 142 kts 262°
2026-05-05 07:14 34.03841 -80.63519 8019 ft 142 kts 262°
2026-05-05 07:15 34.03604 -80.64685 8019 ft 142 kts 262°
2026-05-05 07:15 34.03372 -80.65823 8024 ft 142 kts 262°
2026-05-05 07:15 34.03137 -80.66977 8025 ft 143 kts 262°
2026-05-05 07:15 34.02898 -80.68151 8025 ft 143 kts 262°
2026-05-05 07:16 34.02662 -80.69307 8025 ft 143 kts 262°
2026-05-05 07:16 34.02423 -80.70479 8025 ft 144 kts 262°
2026-05-05 07:16 34.02184 -80.71654 8025 ft 144 kts 262°
2026-05-05 07:16 34.01944 -80.72829 8025 ft 144 kts 262°
2026-05-05 07:17 34.01706 -80.73994 8024 ft 144 kts 262°
2026-05-05 07:17 34.01468 -80.75158 8024 ft 144 kts 262°
2026-05-05 07:17 34.01227 -80.76337 8024 ft 144 kts 262°
2026-05-05 07:17 34.00988 -80.77504 8024 ft 144 kts 262°
2026-05-05 07:18 34.00748 -80.78675 8024 ft 144 kts 262°
2026-05-05 07:18 34.00508 -80.79850 8024 ft 144 kts 262°
2026-05-05 07:18 34.00269 -80.81016 8024 ft 144 kts 262°
2026-05-05 07:18 34.00027 -80.82195 8024 ft 144 kts 262°
2026-05-05 07:19 33.99788 -80.83363 8024 ft 144 kts 262°
2026-05-05 07:19 33.99547 -80.84533 8024 ft 144 kts 262°
2026-05-05 07:19 33.99309 -80.85696 8024 ft 144 kts 262°
2026-05-05 07:19 33.99067 -80.86873 8024 ft 144 kts 262°
2026-05-05 07:20 33.98826 -80.88044 8024 ft 144 kts 262°
2026-05-05 07:20 33.98586 -80.89214 8012 ft 144 kts 262°
2026-05-05 07:20 33.98344 -80.90390 8005 ft 144 kts 262°
2026-05-05 07:20 33.98103 -80.91562 8004 ft 144 kts 262°
2026-05-05 07:21 33.97860 -80.92741 8003 ft 144 kts 262°
2026-05-05 07:21 33.97619 -80.93906 8003 ft 144 kts 262°
2026-05-05 07:21 33.97377 -80.95083 8003 ft 144 kts 262°
2026-05-05 07:21 33.97137 -80.96246 8003 ft 144 kts 262°
2026-05-05 07:22 33.96895 -80.97417 8003 ft 144 kts 262°
2026-05-05 07:22 33.96656 -80.98576 8003 ft 144 kts 262°
2026-05-05 07:22 33.96412 -80.99754 8003 ft 144 kts 262°
2026-05-05 07:22 33.96172 -81.00917 8003 ft 144 kts 262°
2026-05-05 07:23 33.95929 -81.02090 8003 ft 143 kts 262°
2026-05-05 07:23 33.95688 -81.03256 8003 ft 143 kts 262°
2026-05-05 07:23 33.95449 -81.04412 8003 ft 143 kts 262°
2026-05-05 07:23 33.95206 -81.05582 8003 ft 143 kts 262°
2026-05-05 07:24 33.94964 -81.06754 8003 ft 143 kts 262°
2026-05-05 07:24 33.94721 -81.07925 8003 ft 143 kts 262°
2026-05-05 07:24 33.94481 -81.09082 8003 ft 143 kts 262°
2026-05-05 07:24 33.94237 -81.10253 8003 ft 143 kts 262°
2026-05-05 07:25 33.93995 -81.11424 8003 ft 143 kts 262°
2026-05-05 07:25 33.93755 -81.12585 8002 ft 143 kts 262°
2026-05-05 07:25 33.93518 -81.13747 8002 ft 143 kts 262°
2026-05-05 07:25 33.93284 -81.14912 8002 ft 143 kts 262°
2026-05-05 07:26 33.93049 -81.16089 8002 ft 143 kts 262°
2026-05-05 07:26 33.92821 -81.17251 8002 ft 143 kts 262°
2026-05-05 07:26 33.92594 -81.18416 8002 ft 143 kts 262°
2026-05-05 07:26 33.92370 -81.19581 8002 ft 143 kts 263°
2026-05-05 07:27 33.92147 -81.20757 8002 ft 143 kts 263°
2026-05-05 07:27 33.91929 -81.21919 8002 ft 143 kts 263°
2026-05-05 07:27 33.91713 -81.23084 8002 ft 143 kts 263°
2026-05-05 07:27 33.91499 -81.24254 8002 ft 143 kts 263°
2026-05-05 07:28 33.91288 -81.25426 8002 ft 143 kts 263°
2026-05-05 07:28 33.91079 -81.26597 8002 ft 143 kts 263°
2026-05-05 07:28 33.90874 -81.27763 8002 ft 143 kts 264°
2026-05-05 07:28 33.90672 -81.28926 8002 ft 143 kts 264°
2026-05-05 07:29 33.90470 -81.30101 8002 ft 143 kts 264°
2026-05-05 07:29 33.90272 -81.31271 8002 ft 142 kts 264°
2026-05-05 07:29 33.90077 -81.32443 8001 ft 142 kts 264°
2026-05-05 07:29 33.89884 -81.33619 7999 ft 142 kts 264°
2026-05-05 07:30 33.89695 -81.34782 7999 ft 142 kts 264°
2026-05-05 07:30 33.89322 -81.37125 7999 ft 142 kts 265°
2026-05-05 07:30 33.89140 -81.38291 7998 ft 142 kts 265°
2026-05-05 07:31 33.88961 -81.39458 7998 ft 142 kts 265°
2026-05-05 07:31 33.88784 -81.40626 7998 ft 141 kts 265°
2026-05-05 07:31 33.88610 -81.41788 7998 ft 141 kts 265°
2026-05-05 07:31 33.88439 -81.42949 7998 ft 141 kts 265°
2026-05-05 07:32 33.88269 -81.44123 7998 ft 141 kts 265°
2026-05-05 07:32 33.88102 -81.45291 7998 ft 141 kts 265°
2026-05-05 07:32 33.87938 -81.46458 7998 ft 141 kts 266°
2026-05-05 07:32 33.87777 -81.47618 7998 ft 141 kts 266°
2026-05-05 07:33 33.87619 -81.48782 7998 ft 141 kts 266°
2026-05-05 07:33 33.87461 -81.49957 7998 ft 141 kts 266°
2026-05-05 07:33 33.87308 -81.51115 7998 ft 141 kts 266°
2026-05-05 07:33 33.87155 -81.52296 7998 ft 141 kts 266°
2026-05-05 07:34 33.87006 -81.53464 7998 ft 141 kts 266°
2026-05-05 07:34 33.86860 -81.54623 7998 ft 141 kts 266°
2026-05-05 07:34 33.86717 -81.55784 7998 ft 141 kts 267°
2026-05-05 07:34 33.86575 -81.56963 7998 ft 141 kts 267°
2026-05-05 07:35 33.86437 -81.58121 7997 ft 141 kts 267°
2026-05-05 07:35 33.86300 -81.59295 7998 ft 140 kts 260°
2026-05-05 07:35 33.86174 -81.60442 8020 ft 139 kts 259°
2026-05-05 07:35 33.86049 -81.61600 8024 ft 139 kts 259°
2026-05-05 07:36 33.85926 -81.62759 8024 ft 139 kts 259°
2026-05-05 07:36 33.85806 -81.63914 8024 ft 139 kts 260°
2026-05-05 07:36 33.85686 -81.65083 8024 ft 140 kts 259°
2026-05-05 07:36 33.85571 -81.66244 8029 ft 140 kts 259°
2026-05-05 07:37 33.85457 -81.67407 8029 ft 140 kts 259°
2026-05-05 07:37 33.85346 -81.68574 8029 ft 141 kts 260°
2026-05-05 07:37 33.85237 -81.69742 8029 ft 141 kts 260°
2026-05-05 07:37 33.85130 -81.70919 8029 ft 141 kts 260°
2026-05-05 07:38 33.85026 -81.72098 8029 ft 141 kts 260°
2026-05-05 07:38 33.84924 -81.73277 8029 ft 141 kts 261°
2026-05-05 07:38 33.84826 -81.74454 8029 ft 141 kts 261°
2026-05-05 07:38 33.84730 -81.75633 8029 ft 141 kts 261°
2026-05-05 07:39 33.84636 -81.76814 8029 ft 141 kts 261°
2026-05-05 07:39 33.84547 -81.77981 8029 ft 141 kts 261°
2026-05-05 07:39 33.84459 -81.79167 8028 ft 141 kts 261°
2026-05-05 07:39 33.84374 -81.80337 8028 ft 141 kts 261°
2026-05-05 07:40 33.84291 -81.81525 8028 ft 141 kts 261°
2026-05-05 07:40 33.84211 -81.82712 8028 ft 141 kts 262°
2026-05-05 07:40 33.84135 -81.83884 8028 ft 141 kts 262°
2026-05-05 07:40 33.84061 -81.85059 8028 ft 141 kts 262°
2026-05-05 07:41 33.83989 -81.86249 8028 ft 141 kts 262°
2026-05-05 07:41 33.83920 -81.87434 8028 ft 141 kts 262°
2026-05-05 07:41 33.83854 -81.88614 8028 ft 141 kts 262°
2026-05-05 07:41 33.83791 -81.89793 8028 ft 142 kts 262°
2026-05-05 07:42 33.83731 -81.90968 8028 ft 142 kts 263°
2026-05-05 07:42 33.83673 -81.92162 8028 ft 142 kts 263°
2026-05-05 07:42 33.83618 -81.93349 8028 ft 142 kts 263°
2026-05-05 07:42 33.83566 -81.94534 8028 ft 142 kts 263°
2026-05-05 07:43 33.83517 -81.95705 8028 ft 142 kts 263°
2026-05-05 07:43 33.83469 -81.96895 8027 ft 142 kts 263°
2026-05-05 07:43 33.83425 -81.98079 8027 ft 142 kts 263°
2026-05-05 07:43 33.83384 -81.99264 8027 ft 142 kts 263°
2026-05-05 07:44 33.83345 -82.00452 8027 ft 142 kts 264°
2026-05-05 07:44 33.83309 -82.01640 8027 ft 142 kts 264°
2026-05-05 07:44 33.83276 -82.02821 8027 ft 142 kts 264°
2026-05-05 07:44 33.83246 -82.04006 8027 ft 142 kts 264°
2026-05-05 07:45 33.83218 -82.05186 8027 ft 142 kts 264°
2026-05-05 07:45 33.83193 -82.06368 8027 ft 142 kts 264°
2026-05-05 07:45 33.83170 -82.07562 8027 ft 142 kts 264°
2026-05-05 07:45 33.83150 -82.08746 8027 ft 142 kts 265°
2026-05-05 07:46 33.83133 -82.09937 8027 ft 142 kts 265°
2026-05-05 07:46 33.83119 -82.11113 8027 ft 142 kts 265°
2026-05-05 07:46 33.83107 -82.12297 8027 ft 142 kts 265°
2026-05-05 07:46 33.83099 -82.13491 8027 ft 142 kts 265°
2026-05-05 07:47 33.83093 -82.14677 8026 ft 142 kts 265°
2026-05-05 07:47 33.83089 -82.15868 8026 ft 142 kts 265°
2026-05-05 07:47 33.83088 -82.17058 8026 ft 142 kts 265°
2026-05-05 07:47 33.83090 -82.18233 8026 ft 142 kts 266°
2026-05-05 07:48 33.83095 -82.19421 8026 ft 142 kts 266°
2026-05-05 07:48 33.83102 -82.20618 8026 ft 142 kts 266°
2026-05-05 07:48 33.83112 -82.21806 8026 ft 142 kts 266°
2026-05-05 07:48 33.83125 -82.22997 8026 ft 142 kts 266°
2026-05-05 07:49 33.83140 -82.24169 8026 ft 142 kts 266°
2026-05-05 07:49 33.83158 -82.25372 8026 ft 142 kts 266°
2026-05-05 07:49 33.83179 -82.26559 8026 ft 142 kts 267°
2026-05-05 07:49 33.83203 -82.27742 8026 ft 142 kts 267°
2026-05-05 07:50 33.83284 -82.28920 8015 ft 148 kts 283°
2026-05-05 07:50 33.84065 -82.29808 8030 ft 168 kts 330°
2026-05-05 07:50 33.85281 -82.29784 8034 ft 187 kts 15°
2026-05-05 07:50 33.86276 -82.28772 8036 ft 194 kts 60°
2026-05-05 07:51 33.86542 -82.27234 8036 ft 186 kts 105°
2026-05-05 07:51 33.86159 -82.25784 8036 ft 181 kts 120°
2026-05-05 07:51 33.85668 -82.24381 8031 ft 182 kts 122°
2026-05-05 07:51 33.85169 -82.22993 8029 ft 182 kts 122°
2026-05-05 07:52 33.84755 -82.21546 8027 ft 186 kts 111°
2026-05-05 07:52 33.84540 -82.19993 8028 ft 189 kts 102°
2026-05-05 07:52 33.84478 -82.18407 8028 ft 191 kts 96°
2026-05-05 07:52 33.84508 -82.16791 8029 ft 192 kts 92°
2026-05-05 07:53 33.84593 -82.15192 8029 ft 193 kts 90°
2026-05-05 07:53 33.84709 -82.13584 8029 ft 193 kts 89°
2026-05-05 07:53 33.84842 -82.11974 8029 ft 193 kts 89°
2026-05-05 07:53 33.84981 -82.10384 8029 ft 193 kts 88°
2026-05-05 07:54 33.85128 -82.08771 8030 ft 193 kts 88°
2026-05-05 07:54 33.85277 -82.07156 8030 ft 193 kts 88°
2026-05-05 07:54 33.85426 -82.05560 8030 ft 193 kts 88°
2026-05-05 07:54 33.85577 -82.03944 8030 ft 193 kts 88°
2026-05-05 07:55 33.85727 -82.02344 8030 ft 193 kts 88°
2026-05-05 07:55 33.85879 -82.00726 8030 ft 193 kts 88°
2026-05-05 07:55 33.86028 -81.99133 8030 ft 193 kts 88°
2026-05-05 07:55 33.86179 -81.97520 8030 ft 193 kts 88°
2026-05-05 07:56 33.86329 -81.95914 8030 ft 194 kts 88°
2026-05-05 07:56 33.86479 -81.94308 8030 ft 194 kts 88°
2026-05-05 07:56 33.86630 -81.92690 8030 ft 194 kts 88°
2026-05-05 07:56 33.86776 -81.91119 8031 ft 194 kts 88°
2026-05-05 07:57 33.86927 -81.89499 8031 ft 194 kts 88°
2026-05-05 07:57 33.87076 -81.87888 8031 ft 194 kts 88°
2026-05-05 07:57 33.87224 -81.86294 8031 ft 194 kts 88°
2026-05-05 07:57 33.87373 -81.84686 8031 ft 194 kts 88°
2026-05-05 07:58 33.87523 -81.83066 8031 ft 194 kts 88°
2026-05-05 07:58 33.87671 -81.81461 8031 ft 194 kts 88°
2026-05-05 07:58 33.87819 -81.79852 8031 ft 194 kts 88°
2026-05-05 07:58 33.87969 -81.78223 8031 ft 194 kts 88°
2026-05-05 07:59 33.88115 -81.76630 8031 ft 194 kts 88°
2026-05-05 07:59 33.88264 -81.75011 8032 ft 194 kts 88°
2026-05-05 07:59 33.88411 -81.73399 8032 ft 194 kts 88°
2026-05-05 07:59 33.88560 -81.71776 8032 ft 194 kts 88°
2026-05-05 08:00 33.88706 -81.70177 8032 ft 194 kts 88°
2026-05-05 08:00 33.88854 -81.68557 8032 ft 194 kts 88°
2026-05-05 08:00 33.89002 -81.66933 8032 ft 194 kts 88°
2026-05-05 08:00 33.89149 -81.65318 8032 ft 194 kts 88°
2026-05-05 08:01 33.89296 -81.63705 8032 ft 194 kts 88°
2026-05-05 08:01 33.89442 -81.62090 8032 ft 194 kts 88°
2026-05-05 08:01 33.89588 -81.60487 8032 ft 194 kts 88°
2026-05-05 08:01 33.89733 -81.58872 8032 ft 194 kts 88°
2026-05-05 08:02 33.89880 -81.57250 8033 ft 194 kts 88°
2026-05-05 08:02 33.90025 -81.55645 8033 ft 194 kts 88°
2026-05-05 08:02 33.90171 -81.54027 8033 ft 194 kts 88°
2026-05-05 08:02 33.90316 -81.52413 8033 ft 194 kts 88°
2026-05-05 08:03 33.90461 -81.50787 8033 ft 194 kts 88°
2026-05-05 08:03 33.90606 -81.49171 8033 ft 194 kts 88°
2026-05-05 08:03 33.90752 -81.47546 8033 ft 194 kts 88°
2026-05-05 08:03 33.90896 -81.45936 8033 ft 194 kts 88°
2026-05-05 08:04 33.91041 -81.44305 8033 ft 194 kts 88°
2026-05-05 08:04 33.91184 -81.42697 8033 ft 194 kts 88°
2026-05-05 08:04 33.91329 -81.41072 8027 ft 195 kts 88°
2026-05-05 08:04 33.91473 -81.39420 7714 ft 200 kts 88°
2026-05-05 08:05 33.91622 -81.37749 7346 ft 200 kts 88°
2026-05-05 08:05 33.91769 -81.36106 6981 ft 198 kts 88°
2026-05-05 08:05 33.91907 -81.34445 6601 ft 196 kts 86°
2026-05-05 08:05 33.92047 -81.32822 6225 ft 195 kts 84°
2026-05-05 08:06 33.92197 -81.31201 5845 ft 193 kts 85°
2026-05-05 08:06 33.92340 -81.29610 5470 ft 191 kts 85°
2026-05-05 08:06 33.92479 -81.28039 5095 ft 189 kts 85°
2026-05-05 08:06 33.92618 -81.26453 4714 ft 188 kts 85°
2026-05-05 08:07 33.92751 -81.24903 4244 ft 187 kts 85°
2026-05-05 08:07 33.92788 -81.23357 3733 ft 185 kts 105°
2026-05-05 08:07 33.92402 -81.21902 3252 ft 182 kts 111°
2026-05-05 08:07 33.91986 -81.20473 2751 ft 181 kts 112°
2026-05-05 08:08 33.91566 -81.19064 2252 ft 179 kts 112°
2026-05-05 08:08 33.91155 -81.17700 1957 ft 166 kts 112°
2026-05-05 08:08 33.90787 -81.16476 1542 ft 147 kts 112°
2026-05-05 08:08 33.90578 -81.15363 1172 ft 122 kts 81°
2026-05-05 08:09 33.91009 -81.14584 733 ft 111 kts 42°
2026-05-05 08:09 33.91563 -81.13916 449 ft 108 kts 45°
2026-05-05 08:09 33.92063 -81.13307 363 ft 100 kts 43°
2026-05-05 08:09 33.92561 -81.12747 321 ft 95 kts 43°
2026-05-05 08:10 33.93022 -81.12196 199 ft 91 kts 42°
2026-05-05 08:10 33.93407 -81.11745 192 ft 61 kts 43°
2026-05-05 08:10 33.93506 -81.11530 200 ft 19 kts 130°
2026-05-05 08:10 33.93421 -81.11427 199 ft 15 kts 109°
2026-05-05 08:11 33.93483 -81.11309 201 ft 19 kts 42°
2026-05-05 08:11 33.93565 -81.11213 205 ft 16 kts 44°
2026-05-05 08:11 33.93544 -81.11145 205 ft 12 kts 151°
2026-05-05 08:11 33.93507 -81.11128 204 ft 0 kts 161°